PUA274 SULS-SABE

Flight info

Callsign PUA274
Flight time 0h 37m
Altitude 20000
Route LUCIO A306 UGIMI UGIMI8R
Aircraft A320/M-SDE3FGHIJ4RWY/LB1

Departure

Time 2026-04-26 20:51
Airport Capitan Corbeta CA Curbelo International Airport (SULS)

Arrival

Time 2026-04-26 21:28
Airport Aeroparque Jorge Newbery (SABE)
Time Latitude Longitude Altitude Speed Heading
2026-04-26 20:15 -34.85988 -55.09988 101 ft 0 kts 161°
2026-04-26 20:44 -34.85988 -55.09987 101 ft 0 kts 161°
2026-04-26 20:45 -34.85992 -55.09986 101 ft 2 kts 162°
2026-04-26 20:45 -34.86017 -55.09961 101 ft 5 kts 110°
2026-04-26 20:45 -34.86012 -55.09920 101 ft 5 kts 73°
2026-04-26 20:45 -34.86000 -55.09877 101 ft 6 kts 72°
2026-04-26 20:46 -34.85988 -55.09829 101 ft 6 kts 71°
2026-04-26 20:46 -34.85961 -55.09799 101 ft 5 kts
2026-04-26 20:46 -34.85929 -55.09809 101 ft 5 kts 343°
2026-04-26 20:46 -34.85891 -55.09823 101 ft 6 kts 341°
2026-04-26 20:47 -34.85845 -55.09842 101 ft 8 kts 341°
2026-04-26 20:47 -34.85808 -55.09856 99 ft 9 kts 342°
2026-04-26 20:47 -34.85714 -55.09892 101 ft 12 kts 342°
2026-04-26 20:47 -34.85634 -55.09879 102 ft 18 kts 55°
2026-04-26 20:48 -34.85582 -55.09680 103 ft 29 kts 71°
2026-04-26 20:48 -34.85507 -55.09399 102 ft 40 kts 72°
2026-04-26 20:48 -34.85440 -55.09150 101 ft 17 kts 73°
2026-04-26 20:48 -34.85429 -55.09060 99 ft 11 kts 111°
2026-04-26 20:49 -34.85436 -55.09009 102 ft 8 kts 62°
2026-04-26 20:49 -34.85409 -55.09047 100 ft 7 kts 233°
2026-04-26 20:49 -34.85417 -55.09065 100 ft 0 kts 250°
2026-04-26 20:50 -34.85419 -55.09072 100 ft 6 kts 250°
2026-04-26 20:50 -34.85505 -55.09397 104 ft 73 kts 251°
2026-04-26 20:50 -34.85723 -55.10212 99 ft 127 kts 251°
2026-04-26 20:51 -34.86012 -55.11343 407 ft 141 kts 256°
2026-04-26 20:51 -34.86309 -55.12468 928 ft 140 kts 257°
2026-04-26 20:51 -34.86612 -55.13620 1293 ft 149 kts 256°
2026-04-26 20:51 -34.86941 -55.14884 1587 ft 163 kts 256°
2026-04-26 20:52 -34.87250 -55.16275 1864 ft 177 kts 265°
2026-04-26 20:52 -34.87385 -55.17831 2133 ft 193 kts 267°
2026-04-26 20:52 -34.87502 -55.19530 2414 ft 208 kts 267°
2026-04-26 20:52 -34.87621 -55.21292 2963 ft 208 kts 267°
2026-04-26 20:53 -34.87741 -55.23048 3534 ft 208 kts 266°
2026-04-26 20:53 -34.87861 -55.24851 3898 ft 220 kts 267°
2026-04-26 20:53 -34.87990 -55.26775 4160 ft 236 kts 267°
2026-04-26 20:53 -34.88126 -55.28809 4632 ft 245 kts 266°
2026-04-26 20:54 -34.88267 -55.30884 5551 ft 246 kts 267°
2026-04-26 20:54 -34.88410 -55.32957 6468 ft 246 kts 266°
2026-04-26 20:54 -34.88558 -55.35042 7326 ft 248 kts 267°
2026-04-26 20:54 -34.88708 -55.37136 8159 ft 249 kts 268°
2026-04-26 20:55 -34.88859 -55.39263 8948 ft 254 kts 268°
2026-04-26 20:55 -34.89007 -55.41416 9761 ft 256 kts 268°
2026-04-26 20:55 -34.89157 -55.43605 10361 ft 266 kts 269°
2026-04-26 20:55 -34.89311 -55.45914 10724 ft 282 kts 269°
2026-04-26 20:56 -34.89475 -55.48347 11211 ft 291 kts 269°
2026-04-26 20:56 -34.89637 -55.50786 11905 ft 293 kts 269°
2026-04-26 20:56 -34.89805 -55.53264 12658 ft 294 kts 270°
2026-04-26 20:56 -34.89972 -55.55739 13430 ft 293 kts 269°
2026-04-26 20:57 -34.90142 -55.58212 14169 ft 293 kts 269°
2026-04-26 20:57 -34.90314 -55.60687 14884 ft 293 kts 269°
2026-04-26 20:57 -34.90484 -55.63159 15553 ft 293 kts 269°
2026-04-26 20:57 -34.90653 -55.65635 16189 ft 294 kts 269°
2026-04-26 20:58 -34.90820 -55.68118 16834 ft 294 kts 269°
2026-04-26 20:58 -34.90984 -55.70602 17478 ft 294 kts 269°
2026-04-26 20:58 -34.91148 -55.73088 18109 ft 295 kts 269°
2026-04-26 20:58 -34.91312 -55.75576 18738 ft 295 kts 269°
2026-04-26 20:59 -34.91478 -55.78076 19330 ft 297 kts 269°
2026-04-26 20:59 -34.91645 -55.80585 19715 ft 296 kts 269°
2026-04-26 20:59 -34.91810 -55.83076 19799 ft 291 kts 269°
2026-04-26 20:59 -34.91972 -55.85524 19812 ft 290 kts 269°
2026-04-26 21:00 -34.92132 -55.87970 19812 ft 289 kts 270°
2026-04-26 21:00 -34.92286 -55.90419 19812 ft 289 kts 269°
2026-04-26 21:00 -34.92441 -55.92867 19814 ft 290 kts 270°
2026-04-26 21:00 -34.92603 -55.95330 19817 ft 291 kts 269°
2026-04-26 21:01 -34.92769 -55.97783 19812 ft 289 kts 269°
2026-04-26 21:01 -34.92937 -56.00226 19813 ft 289 kts 269°
2026-04-26 21:01 -34.93099 -56.02736 19815 ft 307 kts 269°
2026-04-26 21:01 -34.93262 -56.05410 19813 ft 325 kts 269°
2026-04-26 21:02 -34.93431 -56.08203 19811 ft 337 kts 269°
2026-04-26 21:02 -34.93610 -56.11019 19821 ft 338 kts 268°
2026-04-26 21:02 -34.93798 -56.13877 19822 ft 339 kts 268°
2026-04-26 21:02 -34.93980 -56.16777 19837 ft 347 kts 266°
2026-04-26 21:03 -34.94164 -56.19730 19840 ft 350 kts 266°
2026-04-26 21:03 -34.94348 -56.22688 19840 ft 350 kts 266°
2026-04-26 21:03 -34.94530 -56.25645 19841 ft 350 kts 266°
2026-04-26 21:03 -34.94713 -56.28603 19841 ft 350 kts 266°
2026-04-26 21:04 -34.94896 -56.31572 19841 ft 351 kts 266°
2026-04-26 21:04 -34.95080 -56.34538 19840 ft 351 kts 266°
2026-04-26 21:04 -34.95265 -56.37504 19841 ft 351 kts 266°
2026-04-26 21:04 -34.95450 -56.40467 19841 ft 351 kts 266°
2026-04-26 21:05 -34.95631 -56.43434 19841 ft 351 kts 266°
2026-04-26 21:05 -34.95812 -56.46409 19840 ft 352 kts 266°
2026-04-26 21:05 -34.95992 -56.49385 19840 ft 352 kts 266°
2026-04-26 21:05 -34.96171 -56.52359 19841 ft 352 kts 266°
2026-04-26 21:06 -34.96348 -56.55335 19841 ft 352 kts 266°
2026-04-26 21:06 -34.96525 -56.58367 19846 ft 366 kts 266°
2026-04-26 21:06 -34.96707 -56.61509 19849 ft 376 kts 266°
2026-04-26 21:06 -34.96893 -56.64698 19849 ft 378 kts 266°
2026-04-26 21:07 -34.97081 -56.67895 19850 ft 378 kts 266°
2026-04-26 21:07 -34.97269 -56.71086 19849 ft 378 kts 266°
2026-04-26 21:07 -34.97457 -56.74277 19848 ft 378 kts 266°
2026-04-26 21:07 -34.97642 -56.77478 19841 ft 378 kts 266°
2026-04-26 21:08 -34.97825 -56.80632 19843 ft 378 kts 266°
2026-04-26 21:08 -34.98010 -56.83836 19850 ft 379 kts 266°
2026-04-26 21:08 -34.98194 -56.87033 19850 ft 379 kts 266°
2026-04-26 21:08 -34.98340 -56.90241 19851 ft 378 kts 268°
2026-04-26 21:09 -34.98387 -56.93449 19849 ft 379 kts 269°
2026-04-26 21:09 -34.98364 -56.96663 19846 ft 380 kts 271°
2026-04-26 21:09 -34.97950 -56.99843 19849 ft 384 kts 283°
2026-04-26 21:09 -34.97249 -57.02914 19852 ft 364 kts 282°
2026-04-26 21:10 -34.96579 -57.05782 19861 ft 341 kts 283°
2026-04-26 21:10 -34.95945 -57.08486 19843 ft 323 kts 282°
2026-04-26 21:10 -34.95334 -57.11086 19603 ft 315 kts 282°
2026-04-26 21:10 -34.94756 -57.13569 19359 ft 305 kts 282°
2026-04-26 21:11 -34.94179 -57.16061 19107 ft 296 kts 281°
2026-04-26 21:11 -34.93624 -57.18423 18859 ft 285 kts 282°
2026-04-26 21:11 -34.93081 -57.20696 18603 ft 275 kts 281°
2026-04-26 21:11 -34.92549 -57.22956 18348 ft 276 kts 281°
2026-04-26 21:12 -34.92019 -57.25215 18094 ft 278 kts 281°
2026-04-26 21:12 -34.91488 -57.27476 17845 ft 277 kts 281°
2026-04-26 21:12 -34.90963 -57.29732 17593 ft 274 kts 281°
2026-04-26 21:12 -34.90438 -57.31965 17341 ft 274 kts 281°
2026-04-26 21:13 -34.89910 -57.34205 17086 ft 275 kts 281°
2026-04-26 21:13 -34.89383 -57.36433 16833 ft 273 kts 282°
2026-04-26 21:13 -34.88856 -57.38661 16581 ft 272 kts 281°
2026-04-26 21:13 -34.88330 -57.40868 16331 ft 270 kts 281°
2026-04-26 21:14 -34.87814 -57.43063 16083 ft 269 kts 282°
2026-04-26 21:14 -34.87300 -57.45263 15833 ft 269 kts 281°
2026-04-26 21:14 -34.86795 -57.47421 15584 ft 267 kts 281°
2026-04-26 21:14 -34.86280 -57.49593 15334 ft 268 kts 281°
2026-04-26 21:15 -34.85760 -57.51767 15076 ft 264 kts 281°
2026-04-26 21:15 -34.85255 -57.53881 14928 ft 254 kts 281°
2026-04-26 21:15 -34.84778 -57.55892 14800 ft 239 kts 280°
2026-04-26 21:15 -34.84329 -57.57805 14674 ft 231 kts 280°
2026-04-26 21:16 -34.83897 -57.59652 14442 ft 226 kts 281°
2026-04-26 21:16 -34.83467 -57.61475 14133 ft 223 kts 280°
2026-04-26 21:16 -34.83044 -57.63291 13799 ft 228 kts 280°
2026-04-26 21:16 -34.82594 -57.65212 13501 ft 239 kts 281°
2026-04-26 21:17 -34.82130 -57.67137 13221 ft 236 kts 281°
2026-04-26 21:17 -34.81656 -57.69062 12790 ft 241 kts 281°
2026-04-26 21:17 -34.81175 -57.71090 12225 ft 255 kts 281°
2026-04-26 21:17 -34.80670 -57.73188 11698 ft 260 kts 282°
2026-04-26 21:18 -34.80160 -57.75276 11386 ft 257 kts 281°
2026-04-26 21:18 -34.79666 -57.77372 11028 ft 256 kts 281°
2026-04-26 21:18 -34.79174 -57.79446 10754 ft 256 kts 281°
2026-04-26 21:18 -34.78674 -57.81549 10500 ft 259 kts 281°
2026-04-26 21:19 -34.78166 -57.83645 10249 ft 259 kts 282°
2026-04-26 21:19 -34.77658 -57.85741 10004 ft 258 kts 282°
2026-04-26 21:19 -34.77158 -57.87803 9842 ft 249 kts 281°
2026-04-26 21:19 -34.76673 -57.89800 9719 ft 246 kts 281°
2026-04-26 21:20 -34.76191 -57.91799 9533 ft 247 kts 281°
2026-04-26 21:20 -34.75710 -57.93807 9138 ft 247 kts 281°
2026-04-26 21:20 -34.75228 -57.95820 8718 ft 249 kts 281°
2026-04-26 21:20 -34.74740 -57.97845 8286 ft 250 kts 281°
2026-04-26 21:21 -34.74249 -57.99874 7945 ft 248 kts 281°
2026-04-26 21:21 -34.73765 -58.01867 7524 ft 249 kts 281°
2026-04-26 21:21 -34.73276 -58.03880 7089 ft 249 kts 281°
2026-04-26 21:21 -34.72790 -58.05878 6798 ft 243 kts 281°
2026-04-26 21:22 -34.72312 -58.07831 6210 ft 240 kts 281°
2026-04-26 21:22 -34.71844 -58.09756 5722 ft 235 kts 280°
2026-04-26 21:22 -34.71391 -58.11601 5517 ft 218 kts 280°
2026-04-26 21:23 -34.70706 -58.14389 5128 ft 201 kts 279°
2026-04-26 21:23 -34.70145 -58.15986 4999 ft 210 kts 294°
2026-04-26 21:23 -34.69324 -58.17492 4556 ft 215 kts 295°
2026-04-26 21:23 -34.68496 -58.18979 4133 ft 209 kts 296°
2026-04-26 21:24 -34.67703 -58.20392 3865 ft 197 kts 295°
2026-04-26 21:24 -34.66918 -58.21808 3738 ft 204 kts 295°
2026-04-26 21:24 -34.66123 -58.23241 3670 ft 205 kts 296°
2026-04-26 21:24 -34.65330 -58.24668 3483 ft 203 kts 296°
2026-04-26 21:25 -34.64545 -58.26080 3173 ft 199 kts 296°
2026-04-26 21:25 -34.63785 -58.27438 2881 ft 190 kts 296°
2026-04-26 21:25 -34.63067 -58.28719 2611 ft 178 kts 296°
2026-04-26 21:25 -34.62386 -58.29933 2356 ft 169 kts 297°
2026-04-26 21:26 -34.61749 -58.31076 2154 ft 159 kts 297°
2026-04-26 21:26 -34.61139 -58.32177 1893 ft 155 kts 297°
2026-04-26 21:26 -34.60542 -58.33258 1679 ft 155 kts 298°
2026-04-26 21:26 -34.59957 -58.34309 1432 ft 145 kts 298°
2026-04-26 21:27 -34.59393 -58.35324 1227 ft 145 kts 300°
2026-04-26 21:27 -34.58819 -58.36329 991 ft 144 kts 301°
2026-04-26 21:27 -34.58255 -58.37334 740 ft 144 kts 299°
2026-04-26 21:27 -34.57713 -58.38336 528 ft 144 kts 300°
2026-04-26 21:28 -34.57134 -58.39366 279 ft 148 kts 298°
2026-04-26 21:28 -34.56563 -58.40417 106 ft 148 kts 301°
2026-04-26 21:28 -34.56014 -58.41420 26 ft 121 kts 303°
2026-04-26 21:28 -34.55711 -58.41958 26 ft 34 kts 303°
2026-04-26 21:29 -34.55635 -58.42093 28 ft 20 kts 303°
2026-04-26 21:29 -34.55545 -58.42256 28 ft 33 kts 304°
2026-04-26 21:29 -34.55418 -58.42482 27 ft 18 kts 307°
2026-04-26 21:29 -34.55358 -58.42480 27 ft 13 kts 64°
2026-04-26 21:30 -34.55377 -58.42364 27 ft 15 kts 113°
2026-04-26 21:30 -34.55440 -58.42259 27 ft 16 kts 128°
2026-04-26 21:30 -34.55512 -58.42141 27 ft 19 kts 127°
2026-04-26 21:30 -34.55594 -58.42005 27 ft 21 kts 124°
2026-04-26 21:31 -34.55680 -58.41851 27 ft 23 kts 123°
2026-04-26 21:31 -34.55757 -58.41698 27 ft 15 kts 115°
2026-04-26 21:31 -34.55776 -58.41592 27 ft 11 kts 51°
2026-04-26 21:31 -34.55737 -58.41556 27 ft 6 kts 40°
2026-04-26 21:32 -34.55696 -58.41532 27 ft 7 kts
2026-04-26 21:32 -34.55665 -58.41528 27 ft 0 kts
2026-04-26 21:32 -34.55664 -58.41528 27 ft 1 kts
2026-04-26 21:32 -34.55662 -58.41528 27 ft 0 kts